Georgetown, DE

3:36 PM EST on February 27, 2017 (GMT -0500)
Sussex County

Weather History for KGED - February, 2014

Change the Weather History Date:

Thursday, February 20, 2014

  Actual Average Record
Temperature  
Mean Temperature 44 °F 38 °F  
Max Temperature 56 °F 48 °F 68 °F (2002)
Min Temperature 31 °F 29 °F -3 °F (2015)
Degree Days  
Heating Degree Days 21 27  
Month to date heating degree days 591 564  
Since 1 July heating degree days 3137 3074  
Cooling Degree Days 0 0  
Month to date cooling degree days 0 0  
Year to date cooling degree days 0 0  
Moisture  
Dew Point 33 °F    
Average Humidity 59    
Maximum Humidity 85    
Minimum Humidity 32    
Precipitation  
Precipitation 0.00 in 0.10 in 0.54 in (1979)
Month to date precipitation 3.73 1.97  
Year to date precipitation 6.77 4.89  
Sea Level Pressure  
Sea Level Pressure 30.15 in    
Wind  
Wind Speed 5 mph (ESE)    
Max Wind Speed 15 mph    
Max Gust Speed 24 mph    
Visibility 10 miles    
Events      
T = Trace of Precipitation, MM = Missing Value Source: NWS Daily Summary

Daily Weather History Graph

Daily Weather History Graph

Search for Another Location

Airport or City:

Trip Planner

Search our weather history database for the weather conditions in past years. The results will help you decide how hot, cold, wet, or windy it might be!

Date:

Astronomy

Feb. 20, 2014 Rise Set
Actual Time 6:46 AM EST 5:44 PM EST
Civil Twilight 6:19 AM EST 6:11 PM EST
Nautical Twilight 5:48 AM EST 6:42 PM EST
Astronomical Twilight 5:17 AM EST 7:13 PM EST
Moon 11:32 PM EST (2/20) 9:31 AM EST (2/20)
Length of Visible Light 11h 52m
Length of Day
10h 58m
Waning Gibbous, 71% of the Moon is Illuminated
Feb 20
Waning Gibbous
Feb 22
Last Quarter
Mar 1
New
Mar 8
First Quarter
Mar 16
Full

Hourly Weather History & Observations

Time (EST) Temp. Windchill Dew Point Humidity Pressure Visibility Wind Dir Wind Speed Gust Speed Precip Events Conditions
12:54 AM 46.9 °F - 30.0 °F 52% 30.17 in 10.0 mi Variable 4.6 mph - N/A   Clear
1:54 AM 44.1 °F 42.5 °F 30.0 °F 58% 30.20 in 10.0 mi WSW 3.5 mph - N/A   Clear
2:54 AM 41.0 °F - 30.0 °F 65% 30.19 in 10.0 mi Calm Calm - N/A   Clear
3:54 AM 35.1 °F - 30.0 °F 82% 30.20 in 10.0 mi Calm Calm - N/A   Clear
4:54 AM 34.0 °F - 28.9 °F 82% 30.20 in 10.0 mi Calm Calm - N/A   Clear
5:54 AM 33.1 °F - 28.9 °F 85% 30.21 in 10.0 mi Calm Calm - N/A   Clear
6:54 AM 32.0 °F - 28.0 °F 85% 30.27 in 10.0 mi Calm Calm - N/A   Clear
7:54 AM 35.1 °F - 30.9 °F 85% 30.29 in 10.0 mi Calm Calm - N/A   Clear
8:54 AM 45.0 °F 42.6 °F 30.9 °F 58% 30.29 in 10.0 mi ENE 4.6 mph - N/A   Clear
9:54 AM 48.0 °F - 28.0 °F 46% 30.27 in 10.0 mi East 9.2 mph - N/A   Clear
10:54 AM 52.0 °F - 26.1 °F 37% 30.26 in 10.0 mi SE 10.4 mph - N/A   Clear
11:54 AM 52.0 °F - 26.1 °F 37% 30.25 in 10.0 mi SSE 11.5 mph - N/A   Partly Cloudy
12:54 PM 54.0 °F - 24.1 °F 31% 30.21 in 10.0 mi South 13.8 mph - N/A   Mostly Cloudy
1:54 PM 54.0 °F - 25.0 °F 33% 30.17 in 10.0 mi SE 11.5 mph - N/A   Mostly Cloudy
2:54 PM 51.1 °F - 28.9 °F 43% 30.16 in 10.0 mi SE 9.2 mph - N/A   Overcast
3:54 PM 48.9 °F - 33.1 °F 54% 30.14 in 10.0 mi SE 9.2 mph - N/A   Unknown
4:49 PM 46.4 °F 41.9 °F 35.6 °F 66% 30.12 in 10.0 mi ESE 9.2 mph - N/A   Overcast
4:54 PM 46.9 °F - 35.1 °F 63% 30.13 in 10.0 mi SE 10.4 mph - N/A   Overcast
5:54 PM 45.0 °F 41.2 °F 36.0 °F 71% 30.10 in 10.0 mi ESE 6.9 mph - N/A   Overcast
6:54 PM 45.0 °F 41.8 °F 37.0 °F 74% 30.09 in 10.0 mi East 5.8 mph - N/A   Overcast
7:25 PM 46.0 °F 44.8 °F 37.9 °F 73% 30.07 in 10.0 mi ESE 3.5 mph - N/A   Overcast
7:54 PM 46.0 °F - 39.0 °F 76% 30.06 in 10.0 mi Calm Calm - N/A   Overcast
8:24 PM 46.9 °F - 39.0 °F 74% 30.05 in 10.0 mi Calm Calm - N/A   Overcast
8:54 PM 46.9 °F - 39.0 °F 74% 30.04 in 10.0 mi Calm Calm - N/A   Overcast
9:54 PM 46.0 °F 43.9 °F 39.9 °F 79% 30.02 in 10.0 mi NNE 4.6 mph - N/A   Overcast
10:10 PM 46.0 °F 43.9 °F 39.0 °F 76% 30.02 in 10.0 mi North 4.6 mph - N/A   Scattered Clouds
10:54 PM 46.0 °F - 39.0 °F 76% 30.01 in 10.0 mi Calm Calm - N/A   Clear
11:54 PM 44.1 °F - 39.0 °F 82% 29.99 in 10.0 mi Calm Calm - N/A   Clear